Regional Weather Roundup
Issued by NWS

Home | Current Version | Previous Version | Graphics & Text | Print | Product List | Glossary On
Versions: 1 2 3 4 5 6 7 8 9 10 11 12 13 14 15 16 17 18 19 20 21 22 23 24 25 26 27 28 29 30 31 32 33 34 35 36 37 38 39 40 41 42 43 44 45 46 47 48 49 50
000
ASUS43 KOAX 230210
RWRNE

WEATHER ROUNDUP FOR NEBRASKA
NATIONAL WEATHER SERVICE OMAHA NE
800 PM CST MON DEC 22 2014

NOTES: SATELLITE DATA IS BEING USED TO AUGMENT CLOUD COVER ABOVE
       12000 FEET.
       "FAIR" INDICATES FEW OR NO CLOUDS BELOW 12,000 FEET WITH NO
       SIGNIFICANT WEATHER AND/OR OBSTRUCTIONS TO VISIBILITY.

  * THESE STATIONS DO NOT REPORT WEATHER SUCH AS RAIN...SNOW OR FOG.

NEZ001>004-019>022-054>056-230300-
NEBRASKA PANHANDLE

CITY           SKY/WX    TMP DP  RH WIND       PRES   REMARKS
SCOTTSBLUFF    CLEAR     31  23  72 NW22      29.71R WCI  18
ALLIANCE       MOCLDY    34  23  64 NW33G45   29.63R WCI  20
CHADRON        CLOUDY    36  26  67 NW25G37   29.67R WCI  24
KIMBALL        CLEAR     29  25  82 NW18G25   29.70R WCI  17
SIDNEY         CLEAR     30  22  72 NW20G29   29.69R WCI  17
$$

NEZ057>060-069>072-079>082-230300-
SOUTHWEST NEBRASKA

CITY           SKY/WX    TMP DP  RH WIND       PRES   REMARKS
NORTH PLATTE   MIX PCPN  36  30  79 NW24G36   29.60R WCI  24
IMPERIAL       CLEAR     33  24  69 W17G25    29.63R WCI  22
LEXINGTON      LGT RAIN  38  33  84 NW16      29.57R WCI  28
MCCOOK         CLEAR     37  24  59 W15       29.60R WCI  28
OGALLALA       PTCLDY    35  26  68 NW18G25   29.62R WCI  25
$$

NEZ005>010-023>029-035>040-094-230300-
NORTH CENTRAL NEBRASKA

CITY           SKY/WX    TMP DP  RH WIND       PRES   REMARKS
VALENTINE      CLOUDY    29  25  85 NW22G30   29.57R WCI  15
AINSWORTH      LGT SNOW  29  26  88 NW24G30   29.54R WCI  15
BROKEN BOW     FLURRIES  35  31  85 NW26G33   29.53S WCI  22
O`NEILL        CLOUDY    33  32  97 NW20G26   29.50R FOG     WCI  21
THEDFORD       LGT SNOW  33  30  90 NW28G40   29.56R WCI  19
$$

NEZ041-046>049-061>064-073>077-083>087-230300-
SOUTH CENTRAL NEBRASKA

CITY           SKY/WX    TMP DP  RH WIND       PRES   REMARKS
GRAND ISLAND   PTCLDY    34  29  82 W12       29.53R WCI  25
AURORA         CLEAR     35  31  86 W13       29.51S WCI  26
HASTINGS       CLOUDY    38  30  73 NW15      29.53S WCI  29
HEBRON         PTCLDY    38  31  75 W7        29.54S WCI  32
HOLDREGE       CLOUDY    37  31  79 N6        29.57R WCI  32
KEARNEY *      CLOUDY    37  30  75 W16       29.55S WCI  28
YORK           CLOUDY    37  32  81 W10       29.50S WCI  30
$$

NEZ011>018-030>034-042>045-230300-
NORTHEAST NEBRASKA

CITY           SKY/WX    TMP DP  RH WIND       PRES   REMARKS
NORFOLK        CLOUDY    37  34  89 NW14      29.46S WCI  28
ALBION         CLOUDY    36  31  82 NW14      29.48S WCI  27
BLAIR          LGT RAIN  39  37  90 W7        29.44S WCI  34
COLUMBUS *     CLOUDY    37  32  81 W5        29.49S WCI  34
FREMONT        DRIZZLE   39  37  95 NW9       29.47S WCI  32
TEKAMAH        LGT RAIN  39  36  89 NW13      29.45R WCI  31
WAYNE          DRIZZLE   37  35  93 NW12      29.47R WCI  29
$$

NEZ050>053-065>068-078-088>093-230300-
SOUTHEAST NEBRASKA

CITY           SKY/WX    TMP DP  RH WIND       PRES   REMARKS
LINCOLN        CLOUDY    40  36  86 NW6       29.50R
OMAHA EPPLEY   LGT RAIN  40  37  89 NW12      29.46S WCI  33
BEATRICE       PTCLDY    37  33  87 W8        29.50S WCI  30
FALLS CITY     CLOUDY    42  42 100 W10       29.47S
NEBRASKA CITY  CLOUDY    40  40  99 NW12      29.47R WCI  33
PLATTSMOUTH    DRIZZLE   39  37  91 NW8       29.45S WCI  33
$$

NEZ044-045-051>053-067-230300-
OMAHA AREA

CITY           SKY/WX    TMP DP  RH WIND       PRES   REMARKS
OMAHA EPPLEY   LGT RAIN  40  37  89 NW12      29.46S WCI  33
BLAIR          LGT RAIN  39  37  90 W7        29.44S WCI  34
FREMONT        DRIZZLE   39  37  95 NW9       29.47S WCI  32
MILLARD        LGT RAIN  40  37  89 NW10      29.46R WCI  34
OFFUTT AFB     LGT RAIN  40  38  91 NW16      29.45R WCI  31
PLATTSMOUTH    DRIZZLE   39  37  91 NW8       29.45S WCI  33
WAHOO          CLOUDY    38  35  88 NW12      29.47S WCI  31
$$



USA.gov is the U.S. government's official web portal to all federal, state and local government web resources and services.